Weather in Adygeysk

Russia / Republic of Adygea     44°53′05″N   39°11′26″E
temp.,
°C
wind,
m/s
gust,
m/s
humid.,
%
clouds,
%
prec.,
mm/h
press.,
hPa
HPBL,
m
23 april, fri
fri2300:00+9w33865 0.0 102464
03:00+8sw22825 0.0 102552
06:00+8s22830 0.0 102549
09:00+12sw23723 0.0 1025303
12:00+16sw23560 0.0 1024890
15:00+17sw4549100 0.0 10221214
18:00+15sw2465100 0.0 102077
21:00+12s2264100 0.0 102011
24 april, sat
sat2400:00+11ssw2274100 0.0 101914
03:00+11wnw5970100 0.1 1020229
06:00+10ssw48746 0.0 1018125
09:00+15wsw576598 0.0 1019505
12:00+17sw696099 0.1 10191259
15:00+15wnw567399 0.4 1020743
18:00+13wnw4673100 0.1 1021249
21:00+11nw3665100 0.1 1022175
25 april, sun
sun2500:00+9n2267100 0.0 102387
03:00+9ene2367100 0.0 1022102
06:00+7ne4573100 0.0 1022149
09:00+11ene5766100 0.0 1021487
12:00+11ene5766100 0.1 1020743
15:00+9ne6987100 3.3 1019474
18:00+8ne81294100 6.1 1017478
21:00+8ene71195100 11.4 1017405
26 april, mon
mon2600:00+8ene5895100 0.5 1016449
03:00+8ne3595100 0.6 1016394
06:00+8ne3496100 0.4 1015313
09:00+9e2395100 1.4 1015243
12:00+9nne2296100 5.3 1015190
15:00+9nnw3396100 10.6 1015244
18:00+10nnw3489100 0.8 1016417
21:00+10nnw348699 0.8 1017189
27 april, tue
tue2700:00+8nnw228479 0.0 101877
03:00+6nnw229028 0.0 101878
06:00+6wnw11885 0.0 101950
09:00+9wnw10781 0.0 1019330
12:00+12sw01691 0.0 1019743
15:00+14ssw02620 0.0 1018740
18:00+13se227235 0.0 1018113
21:00+12ese227896 0.0 101833